Location: Unspecified
(38.0989°N, 0.6729°W)
Time: 15:02:52
(UTC+01:00)

Tiangong 1 - Visible Passes

Search period start: 24 March 2017 00:00
Search period end: 03 April 2017 01:00
Orbit: 334 x 358 km, 42.8° (Epoch: 22 March)

Date Brightness Start Highest point End Pass type
(mag) Time Alt. Az. Time Alt. Az. Time Alt. Az.
24 Mar 2.2 21:03:53 10° WNW 21:05:58 39° W 21:05:58 39° W visible
25 Mar 1.0 19:51:53 10° WNW 19:54:48 65° NNE 19:57:27 12° ESE visible
25 Mar 3.9 21:28:13 10° W 21:28:53 14° WSW 21:28:53 14° WSW visible
26 Mar 1.5 21:15:46 10° WNW 21:18:38 49° SSW 21:20:24 20° SE visible
27 Mar 3.2 21:40:08 10° W 21:42:14 18° SW 21:43:24 15° S visible
29 Mar 3.6 20:51:57 10° WSW 20:53:50 16° SW 20:55:43 10° S visible
